Location: Zagreb
(45.8000°N, 16.0000°E)
Time: 03:19:16
(UTC+01:00)

Vanguard 3 - Visible Passes

Search period start: 28 January 2022 00:00
Search period end: 07 February 2022 00:00
Orbit: 508 x 3260 km, 33.3° (Epoch: 27 January)

Date Brightness Start Highest point End Pass type
(mag) Time Alt. Az. Time Alt. Az. Time Alt. Az.
31 Jan 12.1 06:40:13 10° SSE 06:46:15 12° SE 06:51:42 10° ESE visible
02 Feb 11.9 06:18:45 10° S 06:28:15 16° SE 06:36:35 10° ESE visible
04 Feb 11.8 05:58:21 10° S 06:10:08 20° SE 06:20:27 10° ESE visible
05 Feb 11.9 04:49:22 10° SSE 04:54:27 11° SE 04:59:23 10° ESE visible
06 Feb 11.6 05:38:34 10° S 05:51:51 23° SE 06:03:47 10° E visible
